WXM80 ListenWXM80 Stop

You find our weather info also at:

UK Metoffice

WeatherCloud

Weather Underground

Northeastern Weather Network

AWEKAS

Citizen Weather Observer Program (CWOP)

HAMweather, WeatherForYou, PWS Weather


Weather Underground History page Text

Daily Summary for April 13, 2016 Units:  English    Metric   Both
« Previous Day
Next Day »
Daily Weekly Monthly Yearly Custom
  High: Low: Average:
Temperature: 56.5 °F 39.3 °F 47 °F
Dew Point: 37.5 °F 30.0 °F 33.2 °F
Humidity: 79 % 37 % 60 %
Wind Speed: 9.4 mph 0.0 mph 3.1 mph
Wind Gust: 12.7 mph - -
Wind:- - ESE
Pressure: 30.40 in 30.26 in -
Precipitation: 0.00 in    
Historical Graphs
 
 
Tabular Data for April 13, 2016
Time Temperature Dew Point Pressure Wind Wind Speed Wind Gust Humidity Rainfall Rate (Hourly)
00:04 43.9 °F 31.3 °F 30.26 in NNE 3.4 mph 4.6 mph 61 % 0.00 in
00:09 43.8 °F 31.6 °F 30.27 in NNE 2.9 mph 4.6 mph 62 % 0.00 in
00:14 43.7 °F 31.9 °F 30.27 in NNE 3.0 mph 4.0 mph 63 % 0.00 in
00:19 43.6 °F 31.8 °F 30.27 in North 4.6 mph 6.9 mph 63 % 0.00 in
00:24 43.4 °F 32.0 °F 30.27 in NNE 3.3 mph 4.6 mph 64 % 0.00 in
00:29 43.3 °F 31.9 °F 30.28 in North 4.0 mph 5.0 mph 64 % 0.00 in
00:34 43.3 °F 31.5 °F 30.28 in NNE 2.8 mph 5.0 mph 63 % 0.00 in
00:40 43.2 °F 31.4 °F 30.28 in NNE 3.6 mph 8.1 mph 63 % 0.00 in
00:45 43.1 °F 31.0 °F 30.28 in NNE 3.3 mph 4.6 mph 62 % 0.00 in
00:50 43.0 °F 31.3 °F 30.28 in NNE 1.4 mph 3.5 mph 63 % 0.00 in
00:55 42.9 °F 31.6 °F 30.28 in NNE 3.5 mph 4.6 mph 64 % 0.00 in
01:00 42.8 °F 31.8 °F 30.28 in North 1.1 mph 2.3 mph 65 % 0.00 in
01:05 42.7 °F 31.7 °F 30.28 in North 0.5 mph 2.3 mph 65 % 0.00 in
01:10 42.7 °F 32.5 °F 30.28 in North 2.5 mph 3.5 mph 67 % 0.00 in
01:15 42.5 °F 32.7 °F 30.28 in NNE 1.1 mph 2.3 mph 68 % 0.00 in
01:20 42.4 °F 32.6 °F 30.29 in North 2.9 mph 3.5 mph 68 % 0.00 in
01:25 42.3 °F 32.5 °F 30.29 in NNE 3.1 mph 3.5 mph 68 % 0.00 in
01:36 42.0 °F 32.2 °F 30.29 in NNE 2.6 mph 4.6 mph 68 % 0.00 in
01:41 41.9 °F 31.7 °F 30.29 in North 2.2 mph 3.5 mph 67 % 0.00 in
01:46 41.8 °F 31.6 °F 30.30 in NNE 2.1 mph 3.5 mph 67 % 0.00 in
01:51 41.8 °F 32.4 °F 30.30 in NNE 1.9 mph 3.5 mph 69 % 0.00 in
01:56 41.8 °F 33.1 °F 30.30 in NNE 1.7 mph 3.5 mph 71 % 0.00 in
02:01 41.7 °F 33.3 °F 30.30 in North 2.3 mph 3.5 mph 72 % 0.00 in
02:06 41.6 °F 33.2 °F 30.30 in NNE 2.4 mph 4.0 mph 72 % 0.00 in
02:11 41.5 °F 32.8 °F 30.30 in NE 3.3 mph 4.0 mph 71 % 0.00 in
02:16 41.4 °F 33.0 °F 30.30 in NNE 1.2 mph 3.5 mph 72 % 0.00 in
02:22 41.3 °F 33.0 °F 30.30 in NNE 0.9 mph 2.3 mph 72 % 0.00 in
02:32 41.0 °F 32.7 °F 30.30 in NNE 2.1 mph 3.5 mph 72 % 0.00 in
02:37 40.8 °F 32.5 °F 30.30 in NNE 0.8 mph 2.3 mph 72 % 0.00 in
02:42 40.7 °F 32.4 °F 30.30 in NNE 1.7 mph 3.5 mph 72 % 0.00 in
02:47 40.6 °F 31.9 °F 30.31 in NNE 2.0 mph 4.0 mph 71 % 0.00 in
02:52 40.6 °F 31.2 °F 30.31 in NNE 3.5 mph 5.8 mph 69 % 0.00 in
02:57 40.6 °F 30.9 °F 30.30 in NNE 2.6 mph 4.6 mph 68 % 0.00 in
03:02 40.5 °F 31.1 °F 30.31 in NNE 3.0 mph 4.6 mph 69 % 0.00 in
03:07 40.6 °F 31.2 °F 30.31 in NNE 3.3 mph 4.6 mph 69 % 0.00 in
03:13 40.6 °F 31.2 °F 30.31 in NNE 1.6 mph 3.5 mph 69 % 0.00 in
03:18 40.6 °F 31.2 °F 30.31 in NNE 3.6 mph 5.0 mph 69 % 0.00 in
03:23 40.6 °F 31.6 °F 30.31 in NNE 4.7 mph 6.9 mph 70 % 0.00 in
03:28 40.6 °F 31.2 °F 30.31 in NNE 2.8 mph 4.0 mph 69 % 0.00 in
03:33 40.7 °F 31.0 °F 30.32 in NNE 4.5 mph 8.0 mph 68 % 0.00 in
03:38 40.9 °F 30.8 °F 30.32 in NNE 6.6 mph 10.4 mph 67 % 0.00 in
03:43 41.1 °F 30.6 °F 30.32 in NNE 5.2 mph 9.2 mph 66 % 0.00 in
03:48 41.2 °F 31.1 °F 30.32 in NE 3.6 mph 5.8 mph 67 % 0.00 in
03:53 41.3 °F 31.2 °F 30.32 in NE 4.5 mph 6.9 mph 67 % 0.00 in
03:58 41.3 °F 31.2 °F 30.32 in NNE 4.2 mph 11.5 mph 67 % 0.00 in
04:04 41.3 °F 31.5 °F 30.33 in NNE 5.8 mph 5.8 mph 68 % 0.00 in
04:09 41.3 °F 31.5 °F 30.33 in NNE 5.3 mph 8.1 mph 68 % 0.00 in
04:14 41.3 °F 30.8 °F 30.33 in NE 5.6 mph 10.4 mph 66 % 0.00 in
04:19 41.2 °F 30.7 °F 30.33 in North 6.8 mph 12.7 mph 66 % 0.00 in
04:24 41.2 °F 30.3 °F 30.32 in North 6.0 mph 11.5 mph 65 % 0.00 in
04:29 41.2 °F 30.7 °F 30.33 in North 6.4 mph 10.4 mph 66 % 0.00 in
04:34 41.1 °F 30.6 °F 30.33 in NE 7.2 mph 11.0 mph 66 % 0.00 in
04:39 41.0 °F 30.5 °F 30.33 in ENE 6.7 mph 10.4 mph 66 % 0.00 in
04:44 40.9 °F 30.4 °F 30.33 in NNE 9.4 mph 11.5 mph 66 % 0.00 in
04:49 40.9 °F 30.8 °F 30.33 in NNE 5.6 mph 7.0 mph 67 % 0.00 in
04:55 40.7 °F 31.0 °F 30.33 in NE 7.6 mph 11.5 mph 68 % 0.00 in
05:00 40.7 °F 31.0 °F 30.33 in North 5.3 mph 12.7 mph 68 % 0.00 in
05:05 40.6 °F 30.9 °F 30.33 in NNE 4.9 mph 6.0 mph 68 % 0.00 in
05:10 40.5 °F 30.8 °F 30.34 in NNE 9.0 mph 11.5 mph 68 % 0.00 in
05:15 40.5 °F 30.8 °F 30.34 in NNE 5.7 mph 9.2 mph 68 % 0.00 in
05:20 40.4 °F 30.7 °F 30.35 in NNE 6.2 mph 10.4 mph 68 % 0.00 in
05:25 40.4 °F 30.7 °F 30.35 in NNE 4.8 mph 6.9 mph 68 % 0.00 in
05:30 40.3 °F 30.9 °F 30.35 in NNE 4.2 mph 5.8 mph 69 % 0.00 in
05:35 40.2 °F 30.5 °F 30.35 in NNE 5.8 mph 8.1 mph 68 % 0.00 in
05:40 40.2 °F 30.8 °F 30.35 in North 2.8 mph 5.8 mph 69 % 0.00 in
05:46 40.1 °F 30.7 °F 30.36 in NNE 6.1 mph 8.0 mph 69 % 0.00 in
05:51 40.0 °F 30.6 °F 30.36 in NNE 3.2 mph 6.9 mph 69 % 0.00 in
05:56 39.9 °F 30.5 °F 30.36 in NNE 4.1 mph 5.8 mph 69 % 0.00 in
06:01 39.8 °F 30.5 °F 30.36 in NNE 3.8 mph 6.9 mph 69 % 0.00 in
06:06 39.7 °F 30.4 °F 30.37 in North 1.3 mph 3.5 mph 69 % 0.00 in
06:11 39.6 °F 30.3 °F 30.37 in NNW 1.5 mph 3.5 mph 69 % 0.00 in
06:16 39.5 °F 30.5 °F 30.37 in NNW 2.0 mph 4.0 mph 70 % 0.00 in
06:21 39.4 °F 30.1 °F 30.37 in North 1.2 mph 3.5 mph 69 % 0.00 in
06:26 39.3 °F 30.0 °F 30.38 in NNE 3.1 mph 5.8 mph 69 % 0.00 in
06:37 39.3 °F 30.0 °F 30.38 in NNE 2.8 mph 4.6 mph 69 % 0.00 in
06:42 39.4 °F 30.4 °F 30.38 in North 3.1 mph 4.6 mph 70 % 0.00 in
06:47 39.6 °F 30.6 °F 30.39 in North 3.4 mph 6.0 mph 70 % 0.00 in
06:52 39.8 °F 30.5 °F 30.38 in NNW 3.1 mph 5.0 mph 69 % 0.00 in
06:57 40.1 °F 30.7 °F 30.39 in North 2.8 mph 5.8 mph 69 % 0.00 in
07:02 40.4 °F 30.7 °F 30.39 in North 1.9 mph 4.0 mph 68 % 0.00 in
07:07 40.6 °F 30.5 °F 30.39 in North 4.6 mph 6.9 mph 67 % 0.00 in
07:12 40.8 °F 30.7 °F 30.39 in North 4.4 mph 6.9 mph 67 % 0.00 in
07:17 41.0 °F 30.9 °F 30.39 in North 2.4 mph 5.8 mph 67 % 0.00 in
07:22 41.2 °F 30.7 °F 30.39 in NW 2.1 mph 3.5 mph 66 % 0.00 in
07:28 41.4 °F 31.3 °F 30.39 in North 3.5 mph 4.6 mph 67 % 0.00 in
07:33 41.6 °F 31.4 °F 30.39 in North 3.8 mph 8.1 mph 67 % 0.00 in
07:38 41.7 °F 31.2 °F 30.39 in North 3.5 mph 5.8 mph 66 % 0.00 in
07:43 41.9 °F 31.7 °F 30.39 in NNE 1.7 mph 3.5 mph 67 % 0.00 in
07:48 42.1 °F 31.9 °F 30.40 in North 5.9 mph 8.1 mph 67 % 0.00 in
07:53 42.2 °F 31.3 °F 30.39 in NNW 3.9 mph 5.8 mph 65 % 0.00 in
07:58 42.3 °F 30.6 °F 30.40 in North 4.8 mph 8.1 mph 63 % 0.00 in
08:03 42.4 °F 31.5 °F 30.40 in NNE 3.9 mph 5.8 mph 65 % 0.00 in
08:08 42.6 °F 31.3 °F 30.40 in NNE 4.5 mph 8.1 mph 64 % 0.00 in
08:13 42.8 °F 31.5 °F 30.40 in NNW 5.9 mph 9.2 mph 64 % 0.00 in
08:19 43.0 °F 31.3 °F 30.40 in NNE 6.4 mph 9.0 mph 63 % 0.00 in
08:24 43.1 °F 31.7 °F 30.40 in NNE 4.8 mph 9.2 mph 64 % 0.00 in
08:29 43.4 °F 32.0 °F 30.40 in NNE 3.4 mph 5.8 mph 64 % 0.00 in
08:34 43.6 °F 31.8 °F 30.40 in North 6.7 mph 10.4 mph 63 % 0.00 in
08:39 43.8 °F 31.6 °F 30.40 in North 4.1 mph 6.9 mph 62 % 0.00 in
08:44 44.0 °F 31.8 °F 30.40 in NNE 5.9 mph 8.1 mph 62 % 0.00 in
08:49 44.4 °F 33.0 °F 30.40 in North 2.6 mph 5.0 mph 64 % 0.00 in
08:54 44.8 °F 32.6 °F 30.40 in NNE 5.0 mph 6.9 mph 62 % 0.00 in
08:59 45.3 °F 32.6 °F 30.40 in NNE 6.1 mph 9.0 mph 61 % 0.00 in
09:04 45.7 °F 33.0 °F 30.40 in NNE 5.3 mph 7.0 mph 61 % 0.00 in
09:10 46.1 °F 33.0 °F 30.40 in NNE 3.3 mph 6.9 mph 60 % 0.00 in
09:20 47.1 °F 33.9 °F 30.40 in North 5.3 mph 8.0 mph 60 % 0.00 in
09:25 47.5 °F 33.9 °F 30.40 in NE 5.1 mph 7.0 mph 59 % 0.00 in
09:30 48.1 °F 35.3 °F 30.40 in NNE 2.4 mph 3.5 mph 61 % 0.00 in
09:35 48.8 °F 36.4 °F 30.40 in NNE 3.2 mph 6.0 mph 62 % 0.00 in
09:40 49.6 °F 35.8 °F 30.40 in NNE 5.1 mph 8.1 mph 59 % 0.00 in
09:50 50.1 °F 34.5 °F 30.40 in NE 4.7 mph 6.9 mph 55 % 0.00 in
09:55 50.3 °F 34.7 °F 30.39 in ENE 5.9 mph 9.2 mph 55 % 0.00 in
10:01 50.8 °F 36.5 °F 30.39 in NE 4.2 mph 6.9 mph 58 % 0.00 in
10:06 51.3 °F 35.2 °F 30.40 in NNE 6.0 mph 9.2 mph 54 % 0.00 in
10:11 51.6 °F 36.4 °F 30.39 in NNE 4.0 mph 9.2 mph 56 % 0.00 in
10:16 51.9 °F 35.8 °F 30.40 in NE 4.5 mph 8.1 mph 54 % 0.00 in
10:21 51.9 °F 36.2 °F 30.39 in NNE 4.4 mph 8.1 mph 55 % 0.00 in
10:26 52.0 °F 36.3 °F 30.39 in ENE 3.5 mph 6.9 mph 55 % 0.00 in
10:31 51.9 °F 36.2 °F 30.39 in NNE 4.1 mph 8.1 mph 55 % 0.00 in
10:36 51.9 °F 36.7 °F 30.39 in ENE 3.3 mph 5.8 mph 56 % 0.00 in
10:41 51.7 °F 36.5 °F 30.39 in NE 3.7 mph 5.8 mph 56 % 0.00 in
10:46 52.0 °F 36.8 °F 30.39 in NE 4.1 mph 5.8 mph 56 % 0.00 in
10:52 51.7 °F 34.6 °F 30.39 in NNE 2.5 mph 8.1 mph 52 % 0.00 in
10:57 52.0 °F 35.4 °F 30.39 in NNE 5.0 mph 8.1 mph 53 % 0.00 in
11:02 52.3 °F 37.1 °F 30.39 in North 4.4 mph 7.0 mph 56 % 0.00 in
11:07 52.8 °F 37.5 °F 30.39 in NNE 5.6 mph 8.1 mph 56 % 0.00 in
11:12 52.9 °F 35.2 °F 30.38 in ENE 6.0 mph 8.1 mph 51 % 0.00 in
11:17 52.2 °F 36.0 °F 30.38 in NE 4.2 mph 6.9 mph 54 % 0.00 in
11:22 52.2 °F 35.1 °F 30.38 in NNE 2.8 mph 8.1 mph 52 % 0.00 in
11:27 52.1 °F 35.0 °F 30.38 in NE 2.7 mph 4.6 mph 52 % 0.00 in
11:32 52.1 °F 34.0 °F 30.38 in NE 4.0 mph 5.8 mph 50 % 0.00 in
11:37 51.4 °F 35.8 °F 30.37 in North 3.6 mph 4.0 mph 55 % 0.00 in
11:40 51.3 °F 34.3 °F 30.37 in NE 4.3 mph 9.2 mph 52 % 0.00 in
11:51 52.3 °F 37.1 °F 30.37 in NE 5.4 mph 8.1 mph 56 % 0.00 in
11:56 51.9 °F 35.8 °F 30.37 in ESE 3.7 mph 5.8 mph 54 % 0.00 in
12:01 51.6 °F 37.3 °F 30.37 in NE 5.5 mph 8.1 mph 58 % 0.00 in
12:06 51.4 °F 35.8 °F 30.37 in East 3.9 mph 5.8 mph 55 % 0.00 in
12:11 51.1 °F 34.1 °F 30.37 in ENE 4.8 mph 8.1 mph 52 % 0.00 in
12:16 50.9 °F 34.4 °F 30.36 in ENE 4.0 mph 8.1 mph 53 % 0.00 in
12:21 51.0 °F 35.8 °F 30.36 in ENE 5.6 mph 8.0 mph 56 % 0.00 in
12:26 51.3 °F 35.7 °F 30.36 in ENE 4.7 mph 9.2 mph 55 % 0.00 in
12:31 51.2 °F 34.2 °F 30.36 in East 4.6 mph 9.2 mph 52 % 0.00 in
12:37 51.0 °F 34.0 °F 30.36 in ENE 4.2 mph 8.1 mph 52 % 0.00 in
12:42 51.0 °F 34.0 °F 30.35 in ENE 5.3 mph 9.2 mph 52 % 0.00 in
12:47 51.3 °F 34.7 °F 30.35 in ENE 3.0 mph 6.9 mph 53 % 0.00 in
12:52 51.6 °F 35.0 °F 30.35 in ENE 3.6 mph 6.9 mph 53 % 0.00 in
12:57 51.8 °F 34.2 °F 30.35 in ENE 3.2 mph 5.0 mph 51 % 0.00 in
13:02 51.9 °F 34.8 °F 30.35 in East 3.8 mph 5.8 mph 52 % 0.00 in
13:07 52.1 °F 35.5 °F 30.35 in NE 3.4 mph 6.9 mph 53 % 0.00 in
13:12 52.0 °F 33.9 °F 30.35 in NE 4.2 mph 6.9 mph 50 % 0.00 in
13:23 51.8 °F 32.7 °F 30.34 in ENE 3.0 mph 6.9 mph 48 % 0.00 in
13:28 52.1 °F 34.5 °F 30.34 in ENE 2.5 mph 4.6 mph 51 % 0.00 in
13:33 52.3 °F 34.7 °F 30.34 in ENE 2.6 mph 4.6 mph 51 % 0.00 in
13:38 53.3 °F 35.6 °F 30.34 in East 3.1 mph 5.0 mph 51 % 0.00 in
13:43 53.3 °F 33.0 °F 30.34 in ENE 4.2 mph 5.8 mph 46 % 0.00 in
13:53 52.9 °F 33.7 °F 30.33 in ENE 4.2 mph 6.0 mph 48 % 0.00 in
13:58 53.0 °F 32.8 °F 30.33 in ENE 3.7 mph 5.8 mph 46 % 0.00 in
14:03 53.3 °F 33.0 °F 30.33 in NE 4.0 mph 7.0 mph 46 % 0.00 in
14:08 53.5 °F 33.2 °F 30.33 in NE 4.3 mph 6.9 mph 46 % 0.00 in
14:14 53.5 °F 32.1 °F 30.33 in ENE 5.2 mph 7.0 mph 44 % 0.00 in
14:19 53.5 °F 33.2 °F 30.32 in East 4.5 mph 6.9 mph 46 % 0.00 in
14:24 54.1 °F 34.3 °F 30.32 in ENE 4.4 mph 7.0 mph 47 % 0.00 in
14:29 53.9 °F 32.5 °F 30.32 in ENE 5.2 mph 8.1 mph 44 % 0.00 in
14:34 53.6 °F 33.3 °F 30.32 in East 2.6 mph 4.6 mph 46 % 0.00 in
14:39 53.8 °F 33.5 °F 30.32 in ENE 3.5 mph 4.6 mph 46 % 0.00 in
14:44 54.1 °F 33.8 °F 30.31 in ENE 3.9 mph 6.9 mph 46 % 0.00 in
14:49 54.3 °F 33.4 °F 30.31 in ENE 3.0 mph 4.6 mph 45 % 0.00 in
14:54 54.3 °F 32.8 °F 30.31 in ENE 4.5 mph 7.0 mph 44 % 0.00 in
14:59 54.2 °F 32.2 °F 30.31 in ENE 3.0 mph 5.0 mph 43 % 0.00 in
15:05 54.0 °F 32.0 °F 30.31 in NE 1.5 mph 4.6 mph 43 % 0.00 in
15:10 54.2 °F 32.7 °F 30.31 in NE 1.6 mph 3.5 mph 44 % 0.00 in
15:15 54.2 °F 32.7 °F 30.30 in NE 2.5 mph 7.0 mph 44 % 0.00 in
15:25 53.9 °F 30.7 °F 30.30 in East 2.2 mph 4.6 mph 41 % 0.00 in
15:30 53.8 °F 32.9 °F 30.29 in ENE 3.7 mph 4.6 mph 45 % 0.00 in
15:35 53.9 °F 32.5 °F 30.29 in NE 2.2 mph 4.6 mph 44 % 0.00 in
15:40 54.0 °F 31.4 °F 30.29 in NE 3.3 mph 4.6 mph 42 % 0.00 in
15:45 54.2 °F 32.2 °F 30.29 in NE 2.3 mph 3.5 mph 43 % 0.00 in
15:50 54.6 °F 31.9 °F 30.29 in NE 3.2 mph 4.6 mph 42 % 0.00 in
15:56 54.7 °F 31.4 °F 30.28 in NE 3.9 mph 6.9 mph 41 % 0.00 in
16:01 54.6 °F 31.9 °F 30.28 in NNE 2.5 mph 4.6 mph 42 % 0.00 in
16:06 54.8 °F 32.1 °F 30.28 in ENE 2.9 mph 3.5 mph 42 % 0.00 in
16:16 55.2 °F 33.6 °F 30.28 in NE 2.5 mph 4.0 mph 44 % 0.00 in
16:21 55.6 °F 33.4 °F 30.28 in NNE 2.2 mph 4.0 mph 43 % 0.00 in
16:26 56.0 °F 33.2 °F 30.28 in NNE 3.2 mph 3.5 mph 42 % 0.00 in
16:31 56.4 °F 33.6 °F 30.28 in NNE 2.4 mph 3.5 mph 42 % 0.00 in
16:36 56.5 °F 33.7 °F 30.28 in North 2.2 mph 3.5 mph 42 % 0.00 in
16:41 56.4 °F 32.4 °F 30.29 in NNE 3.3 mph 4.6 mph 40 % 0.00 in
16:47 56.5 °F 30.5 °F 30.29 in NE 2.5 mph 3.5 mph 37 % 0.00 in
16:52 55.8 °F 30.5 °F 30.29 in ENE 2.3 mph 4.6 mph 38 % 0.00 in
16:57 55.3 °F 30.7 °F 30.28 in ENE 2.9 mph 3.5 mph 39 % 0.00 in
17:02 54.9 °F 32.2 °F 30.28 in NE 2.5 mph 3.5 mph 42 % 0.00 in
17:07 55.0 °F 31.7 °F 30.29 in NE 1.1 mph 3.5 mph 41 % 0.00 in
17:12 55.1 °F 33.6 °F 30.29 in NNE 3.0 mph 3.5 mph 44 % 0.00 in
17:17 55.3 °F 32.0 °F 30.29 in NNW 1.8 mph 3.5 mph 41 % 0.00 in
17:22 55.5 °F 32.8 °F 30.29 in NNW 1.7 mph 3.5 mph 42 % 0.00 in
17:27 55.7 °F 32.3 °F 30.30 in NNW 0.1 mph 1.2 mph 41 % 0.00 in
17:38 56.0 °F 32.6 °F 30.30 in NNW 1.7 mph 3.0 mph 41 % 0.00 in
17:43 56.1 °F 32.7 °F 30.30 in WNW 0.7 mph 3.5 mph 41 % 0.00 in
17:48 56.3 °F 32.3 °F 30.30 in WNW 2.2 mph 3.5 mph 40 % 0.00 in
17:53 56.3 °F 31.6 °F 30.30 in WNW 2.9 mph 3.5 mph 39 % 0.00 in
18:03 56.2 °F 31.5 °F 30.30 in WNW 2.1 mph 3.5 mph 39 % 0.00 in
18:08 55.9 °F 31.3 °F 30.30 in West 0.3 mph 2.3 mph 39 % 0.00 in
18:13 55.7 °F 31.1 °F 30.30 in West 0.7 mph 2.3 mph 39 % 0.00 in
18:18 55.4 °F 31.5 °F 30.30 in West 0.2 mph 1.2 mph 40 % 0.00 in
18:23 55.2 °F 31.3 °F 30.30 in West 0.7 mph 3.5 mph 40 % 0.00 in
18:29 54.9 °F 31.0 °F 30.30 in West 0.1 mph 3.5 mph 40 % 0.00 in
18:34 54.7 °F 30.8 °F 30.30 in Calm   1.2 mph 40 % 0.00 in
18:39 54.3 °F 33.9 °F 30.30 in SSW 4.2 mph 5.8 mph 46 % 0.00 in
18:44 53.9 °F 35.2 °F 30.30 in SSW 1.6 mph 3.5 mph 49 % 0.00 in
18:49 53.6 °F 35.9 °F 30.30 in South 3.1 mph 4.6 mph 51 % 0.00 in
18:54 53.2 °F 36.0 °F 30.31 in SSW 3.1 mph 4.6 mph 52 % 0.00 in
18:59 52.8 °F 36.1 °F 30.30 in SSW 3.8 mph 6.9 mph 53 % 0.00 in
19:04 52.3 °F 36.1 °F 30.30 in South 4.0 mph 6.9 mph 54 % 0.00 in
19:14 51.4 °F 35.8 °F 30.29 in South 2.6 mph 5.8 mph 55 % 0.00 in
19:20 51.2 °F 36.0 °F 30.29 in South 1.9 mph 4.6 mph 56 % 0.00 in
19:25 50.7 °F 36.0 °F 30.30 in SSW 4.3 mph 4.3 mph 57 % 0.00 in
19:35 50.0 °F 35.8 °F 30.30 in South 2.3 mph 4.6 mph 58 % 0.00 in
19:40 49.5 °F 35.8 °F 30.29 in South 3.4 mph 4.6 mph 59 % 0.00 in
19:45 49.1 °F 35.8 °F 30.29 in South 1.8 mph 4.6 mph 60 % 0.00 in
19:50 48.7 °F 35.8 °F 30.29 in South 3.5 mph 4.6 mph 61 % 0.00 in
19:55 48.5 °F 36.1 °F 30.30 in South 3.6 mph 5.8 mph 62 % 0.00 in
20:00 48.1 °F 36.1 °F 30.29 in SSE 1.9 mph 4.0 mph 63 % 0.00 in
20:05 47.8 °F 36.2 °F 30.29 in SSW 2.6 mph 5.8 mph 64 % 0.00 in
20:11 47.5 °F 35.9 °F 30.29 in SSW 2.5 mph 6.9 mph 64 % 0.00 in
20:16 47.3 °F 36.1 °F 30.29 in SSW 2.8 mph 4.6 mph 65 % 0.00 in
20:21 47.1 °F 35.9 °F 30.29 in South 0.7 mph 2.3 mph 65 % 0.00 in
20:26 46.9 °F 36.1 °F 30.29 in SSW 1.9 mph 4.6 mph 66 % 0.00 in
20:28 46.8 °F 36.0 °F 30.28 in South 0.7 mph 3.5 mph 66 % 0.00 in
20:33 46.5 °F 35.7 °F 30.28 in South 3.6 mph 6.0 mph 66 % 0.00 in
20:38 46.3 °F 35.6 °F 30.28 in SSW 1.0 mph 3.5 mph 66 % 0.00 in
20:43 46.2 °F 35.5 °F 30.29 in South 5.1 mph 6.9 mph 66 % 0.00 in
20:53 45.8 °F 35.5 °F 30.29 in South 3.9 mph 5.8 mph 67 % 0.00 in
20:58 45.6 °F 35.6 °F 30.29 in South 1.3 mph 3.5 mph 68 % 0.00 in
21:04 45.4 °F 35.5 °F 30.30 in South 1.7 mph 5.8 mph 68 % 0.00 in
21:09 45.3 °F 35.7 °F 30.30 in SSW 2.3 mph 5.8 mph 69 % 0.00 in
21:14 45.2 °F 35.6 °F 30.29 in South 2.7 mph 5.0 mph 69 % 0.00 in
21:19 45.1 °F 35.5 °F 30.29 in SSW 2.4 mph 3.5 mph 69 % 0.00 in
21:24 44.9 °F 35.7 °F 30.29 in SSW 1.5 mph 4.6 mph 70 % 0.00 in
21:29 44.7 °F 35.5 °F 30.30 in South 2.2 mph 3.5 mph 70 % 0.00 in
21:34 44.6 °F 35.4 °F 30.29 in SSW 1.0 mph 2.3 mph 70 % 0.00 in
21:39 44.5 °F 35.3 °F 30.29 in SW 1.2 mph 2.3 mph 70 % 0.00 in
21:44 44.3 °F 35.1 °F 30.30 in SW 1.3 mph 3.5 mph 70 % 0.00 in
21:49 44.1 °F 35.3 °F 30.30 in SW 2.2 mph 2.3 mph 71 % 0.00 in
21:55 44.0 °F 35.2 °F 30.30 in SW 0.3 mph 2.0 mph 71 % 0.00 in
22:00 43.9 °F 35.1 °F 30.29 in SW 1.0 mph 2.3 mph 71 % 0.00 in
22:05 43.7 °F 34.9 °F 30.28 in SW 0.2 mph 1.2 mph 71 % 0.00 in
22:10 43.6 °F 34.8 °F 30.28 in SW 0.7 mph 2.3 mph 71 % 0.00 in
22:15 43.5 °F 34.7 °F 30.28 in Calm     71 % 0.00 in
22:20 43.4 °F 35.0 °F 30.28 in Calm   1.2 mph 72 % 0.00 in
22:25 43.3 °F 34.9 °F 30.28 in Calm     72 % 0.00 in
22:30 43.1 °F 34.7 °F 30.29 in Calm     72 % 0.00 in
22:35 43.1 °F 35.0 °F 30.29 in Calm     73 % 0.00 in
22:40 42.9 °F 34.8 °F 30.29 in Calm     73 % 0.00 in
22:46 42.8 °F 34.7 °F 30.29 in Calm     73 % 0.00 in
22:51 42.7 °F 35.0 °F 30.29 in Calm     74 % 0.00 in
22:56 42.6 °F 34.9 °F 30.29 in Calm     74 % 0.00 in
23:01 42.5 °F 35.1 °F 30.29 in SW 0.1 mph 1.2 mph 75 % 0.00 in
23:06 42.4 °F 35.0 °F 30.29 in SW 0.1 mph 1.2 mph 75 % 0.00 in
23:11 42.3 °F 35.3 °F 30.29 in SW 0.4 mph 1.2 mph 76 % 0.00 in
23:16 42.2 °F 35.2 °F 30.30 in SW 0.7 mph 2.3 mph 76 % 0.00 in
23:21 42.1 °F 35.4 °F 30.30 in SW 0.8 mph 1.2 mph 77 % 0.00 in
23:26 42.1 °F 35.4 °F 30.31 in Calm     77 % 0.00 in
23:31 42.0 °F 35.3 °F 30.30 in Calm     77 % 0.00 in
23:37 41.9 °F 35.5 °F 30.30 in SW 0.1 mph 1.2 mph 78 % 0.00 in
23:42 41.7 °F 35.3 °F 30.31 in Calm   1.2 mph 78 % 0.00 in
23:47 41.6 °F 35.2 °F 30.30 in Calm     78 % 0.00 in
23:52 41.6 °F 35.6 °F 30.30 in Calm     79 % 0.00 in
23:57 41.5 °F 35.5 °F 30.30 in Calm     79 % 0.00 in
Crab Meadow Weather
Compliments of Weather Underground - 3 mb

Script developed by  Jim McMurry - jmcmurry@mwt.net Adapted for the template by  Wim van der Kuil - Leuven-Template.eu

Astronomy: Earth is 93 million miles away from the Sun.